FW8918 Weather Reports


time (UTC)temp
C
wind
direction
speed
KPH
gust
KPH
rain 1hr
cm
rain 24hr
cm
rain mn
cm
humidity
%
barometer
mb
20260507130036 12 229 6.4 14.5 0.00 0.00 0.00 69 1018.3
20260507124527 12 231 8.0 11.3 0.00 0.00 0.00 65 1018.2
20260507123038 12 184 6.4 12.9 0.00 0.00 0.00 70 1018.0
20260507121528 12 233 8.0 14.5 0.00 0.00 0.00 69 1018.1
20260507120030 12 236 6.4 12.9 0.00 0.00 0.00 69 1018.2
20260507114605 12 321 6.4 14.5 0.00 0.00 0.00 71 1018.1
20260507113030 12 229 6.4 14.5 0.00 0.00 0.00 71 1018.2
20260507111537 12 243 6.4 16.1 0.00 0.00 0.00 71 1018.1
20260507110031 12 212 6.4 11.3 0.00 0.00 0.00 72 1018.1
20260507104528 11 251 4.8 12.9 0.00 0.00 0.00 71 1018.1
20260507103032 11 269 6.4 12.9 0.00 0.00 0.00 74 1017.9
20260507101530 11 203 4.8 12.9 0.00 0.00 0.00 75 1017.9
20260507100033 11 178 6.4 11.3 0.00 0.00 0.00 76 1017.6
20260507094531 11 247 6.4 11.3 0.00 0.00 0.00 76 1017.6
20260507093040 11 276 4.8 9.7 0.00 0.00 0.00 77 1017.4
20260507091530 11 255 6.4 12.9 0.00 0.00 0.00 75 1017.3
20260507090028 11 200 4.8 11.3 0.00 0.00 0.00 77 1017.2
20260507084531 10 248 3.2 11.3 0.00 0.00 0.00 78 1017.4
20260507083030 10 269 4.8 9.7 0.00 0.00 0.00 77 1017.2
20260507081536 10 250 3.2 8.0 0.00 0.00 0.00 77 1017.1
20260507080030 10 238 4.8 8.0 0.00 0.00 0.00 79 1017.0
20260507074528 10 235 1.6 6.4 0.00 0.00 0.00 79 1016.8
20260507073028 10 207 1.6 6.4 0.00 0.00 0.00 78 1016.6
20260507071530 10 167 3.2 8.0 0.00 0.00 0.00 78 1016.5
20260507070030 10 173 3.2 9.7 0.00 0.00 0.00 78 1016.4
20260507064530 10 214 4.8 11.3 0.00 0.00 0.00 78 1016.4
20260507063030 9 150 1.6 4.8 0.00 0.00 0.00 79 1016.2
20260507061529 8 0 0.0 1.6 0.00 0.00 0.00 79 1016.1
20260507060026 7 0 0.0 0.0 0.00 0.00 0.00 78 1016.0
20260507054528 6 0 0.0 3.2 0.00 0.00 0.00 77 1015.9
20260507053030 6 0 0.0 1.6 0.00 0.00 0.00 76 1015.9
20260507051528 5 0 0.0 1.6 0.00 0.00 0.00 77 1015.7
20260507050036 5 60 0.0 4.8 0.00 0.00 0.00 78 1015.6
20260507044531 5 54 0.0 3.2 0.00 0.00 0.00 78 1015.5
20260507043028 4 55 0.0 4.8 0.00 0.00 0.00 79 1015.4
20260507041545 4 0 0.0 1.6 0.00 0.00 0.00 79 1015.3
20260507040028 4 0 0.0 0.0 0.00 0.00 0.00 79 1015.3
20260507034530 4 0 0.0 1.6 0.00 0.00 0.00 78 1015.2
20260507033032 4 56 0.0 1.6 0.00 0.00 0.00 77 1015.1
20260507031529 5 56 0.0 4.8 0.00 0.00 0.00 76 1015.0
20260507030030 5 0 0.0 4.8 0.00 0.00 0.00 75 1015.1
20260507024530 5 46 0.0 6.4 0.00 0.00 0.00 75 1015.1
20260507023027 5 59 3.2 6.4 0.00 0.00 0.00 75 1014.9
20260507021528 5 58 1.6 3.2 0.00 0.00 0.00 75 1014.6
20260507020029 5 0 0.0 0.0 0.00 0.00 0.00 75 1014.6
20260507014547 6 0 0.0 3.2 0.00 0.00 0.00 74 1014.6
20260507013041 6 0 0.0 4.8 0.00 0.00 0.00 73 1014.4
20260507011537 6 56 1.6 6.4 0.00 0.00 0.00 73 1014.4
20260507010032 6 57 0.0 3.2 0.00 0.00 0.00 72 1014.3
20260507004529 6 51 1.6 8.0 0.00 0.00 0.00 71 1014.2
20260507003034 6 61 3.2 6.4 0.00 0.00 0.00 70 1014.3
20260507001530 6 50 3.2 6.4 0.00 0.00 0.00 68 1014.2
20260507000032 7 60 3.2 8.0 0.00 0.00 0.00 66 1014.1
20260506234530 7 52 3.2 9.7 0.00 0.00 0.00 66 1014.2
20260506233032 7 53 4.8 9.7 0.00 0.00 0.00 67 1014.1
20260506230031 7 64 4.8 11.3 0.00 0.00 0.00 68 1014.0
20260506224528 7 58 3.2 11.3 0.00 0.00 0.00 67 1013.9
20260506223028 8 62 4.8 11.3 0.00 0.00 0.00 67 1013.9
20260506221530 8 47 4.8 8.0 0.00 0.00 0.00 68 1014.0
20260506220029 8 46 4.8 11.3 0.00 0.00 0.00 68 1013.8
20260506214531 8 42 3.2 12.9 0.00 0.00 0.00 70 1013.7
20260506213030 8 58 4.8 12.9 0.00 0.00 0.00 71 1013.6
20260506211528 8 41 3.2 9.7 0.00 0.00 0.00 72 1013.4
20260506210036 8 55 3.2 8.0 0.00 0.00 0.00 73 1013.4
20260506204528 8 53 3.2 9.7 0.00 0.00 0.00 72 1013.5
20260506203037 8 53 1.6 8.0 0.00 0.00 0.00 72 1013.3
20260506201531 8 49 3.2 12.9 0.00 0.00 0.00 71 1013.1
20260506200032 8 39 3.2 12.9 0.00 0.00 0.00 71 1013.0
20260506194530 8 35 3.2 12.9 0.00 0.00 0.00 72 1012.8
20260506193029 8 52 3.2 9.7 0.00 0.00 0.00 72 1012.9
20260506191529 9 58 1.6 11.3 0.00 0.00 0.00 72 1012.7
20260506190031 9 45 3.2 9.7 0.00 0.00 0.00 71 1012.7
20260506184530 9 27 4.8 14.5 0.00 0.00 0.00 69 1012.5
20260506183030 10 43 4.8 12.9 0.00 0.00 0.00 67 1012.5
20260506181534 10 12 6.4 14.5 0.00 0.00 0.00 64 1012.4
20260506180038 10 17 6.4 16.1 0.00 0.00 0.00 63 1012.2
20260506174529 10 15 6.4 17.7 0.00 0.00 0.00 63 1012.2
20260506173028 10 336 4.8 14.5 0.00 0.00 0.00 62 1012.2
20260506171544 11 24 4.8 12.9 0.00 0.00 0.00 60 1012.1
20260506170027 12 13 6.4 17.7 0.00 0.00 0.00 57 1012.1
20260506164528 12 66 6.4 17.7 0.00 0.00 0.00 57 1012.1
20260506163031 12 283 4.8 16.1 0.00 0.00 0.00 58 1011.9
20260506161539 12 64 3.2 17.7 0.00 0.00 0.00 59 1011.9
20260506160031 13 323 4.8 16.1 0.00 0.00 0.00 57 1011.8
20260506154530 13 322 4.8 19.3 0.00 0.00 0.00 58 1011.9
20260506153027 13 292 6.4 22.5 0.00 0.00 0.00 59 1011.9
20260506151528 13 300 4.8 20.9 0.00 0.00 0.00 57 1011.9
20260506150030 13 287 8.0 19.3 0.00 0.00 0.00 57 1011.6
20260506144529 13 31 4.8 22.5 0.00 0.00 0.00 58 1011.7
20260506143030 13 94 6.4 19.3 0.00 0.00 0.00 58 1011.8
20260506141530 13 286 4.8 19.3 0.00 0.00 0.00 59 1011.7
20260506140030 14 7 6.4 25.7 0.00 0.00 0.00 57 1011.6
20260506134603 15 292 6.4 17.7 0.00 0.00 0.00 57 1011.6
20260506133030 15 350 4.8 14.5 0.00 0.00 0.00 57 1011.6
20260506131532 15 29 3.2 9.7 0.00 0.00 0.00 56 1011.7